Regional Weather Roundup
Issued by NWS Newport/Morehead, NC

Current Version | Previous Version | Text Only | Print | Product List | Glossary On
Versions: 1 2 3 4 5 6 7 8 9 10 11 12 13 14 15 16 17 18 19 20 21 22 23 24 25 26 27 28 29 30 31 32 33 34 35 36 37 38 39 40 41 42 43 44 45 46 47 48 49 50
449 ASUS42 KMHX 310513 RWRMHX WEATHER ROUNDUP FOR EASTERN NORTH CAROLINA NATIONAL WEATHER SERVICE NEWPORT/MOREHEAD CITY NC 100 AM EDT SUN JUL 31 2016 NOTE: "FAIR" INDICATES FEW OR NO CLOUDS BELOW 12,000 FEET WITH NO SIGNIFICANT WEATHER AND/OR OBSTRUCTIONS TO VISIBILITY NCZ015>017-031-032-045>047-102-103-310600- NORTH COAST CITY SKY/WX TMP DP RH WIND PRES REMARKS EDENTON CLOUDY 80 80 100 SW3 29.97F ELIZABETH CITY CLOUDY 77 76 96 SW7 29.96F KITTY HAWK CLOUDY 82 82 100 SW10 29.96F MANTEO MOCLDY 82 82 98 SW16 29.97F $$ NCZ045>047-081-094-103-104-310600- CENTRAL COAST CITY SKY/WX TMP DP RH WIND PRES REMARKS FRISCO PTCLDY 81 80 97 SW10 30.00F $$ NCZ095-097-098-100-101-310600- SOUTHERN COAST CITY SKY/WX TMP DP RH WIND PRES REMARKS BEAUFORT CLEAR 84 80 88 SW12 30.00F CEDAR ISLAND NOT AVBL JACKSONVILLE MOCLDY 81 75 82 SW6 30.00S PINEY ISLAND NOT AVBL WILMINGTON CLEAR 81 75 82 W6 30.02S $$ NCZ011>013-027>030-043-044-078>080-089-090>093-098-310600- COASTAL PLAIN CITY SKY/WX TMP DP RH WIND PRES REMARKS AHOSKIE CLOUDY 73 73 99 S3 29.97F CLINTON CLOUDY 76 74 96 CALM 30.01S ELIZABETHTOWN MOCLDY 77 74 91 S3 30.01S GOLDSBORO CLOUDY 79 79 100 E1 29.97F GREENVILLE CLOUDY 77 77 100 CALM 30.00S HAVELOCK CLEAR 82 77 84 SW6 30.01F KENANSVILLE NOT AVBL KINSTON CLOUDY 79 76 91 CALM 30.00S NEW BERN LGT RAIN 80 77 90 S6 30.00F RICHLANDS CLOUDY 79 76 90 S3 30.01S ROCKY MOUNT CLOUDY 75 75 100 CALM 29.99F WASHINGTON PTCLDY 76 75 98 CALM 29.99S WHITEVILLE CLOUDY 77 73 87 CALM 30.01S $$ AMZ130-135-150-152-154-156-158-170-250-252-270-ANZ085-086-088-633-658-670-310600- MARINE OBSERVATIONS STATION/POSITION TIME TEMP WIND PRES WAVE SWELL AIR SEA DIR/SP/G HT/PER HT/PER (UTC) (F) (DEG/KT/KT) (MB) (FT/S) (FT/S) CHESAPEAKE LIGHT NOT AVBL 64 E VA BEACH 0450 83 83 160/ 14/ 16 1014.3 2/ 5 2/ 7 DUCK 0400 83 71 220/ 11/ 14 1014.4 2 E DUCK 0411 79 N/A 2/13 OREGON INLET 0400 83 79 200/ 18/ 20 1015.3 13E OREGON INLT 0500 78 N/A 3/ 4 2/ 8 HATTERAS CG 0400 82 83 220/ 8/ 13 1016.0 DIAMOND BUOY 0450 85 84 210/ 19/ 23 1015.8 4/ 4 2/ 9 CAPE LOOKOUT 0500 84 220/ 9/ 11 1016.1 BEAUFORT LAB 0400 84 83 210/ 8/ 12 1015.9 30 SE NEW RVR IN 0408 85 85 210/ 14/ 19 1016.6 30 SE NEW RVR IN 0425 85 N/A 4/ 6 27 SE WRIGHTSVLE 0408 85 85 200/ 14/ 17 1016.9 5 SE WRIGHTSVLE 0408 83 80 220/ 10/ 14 1017.0 225 S CAPE HAT 0450 85 85 200/ 12/ 14 1019.7 41 SE CHARLESTON 0450 86 86 190/ 17/ 21 1016.1 3/ 4 2/ 8 $$

USA.gov is the U.S. government's official web portal to all federal, state and local government web resources and services.